STARLINK-32599, 62048

Orbit data source: Space-Track

STARLINK-32599, 62048 is a payload satellite owned by SpaceX/Seattle (US) in LEO that was launched on Thu, 21 Nov 2024 UTC via an FALCON 9 launch vehicle from the Air Force Eastern Test Range (AFETR). Payload-class satellites include a variety of spacecraft equipped with specific instruments for various scientific and technological missions. These include communications satellites like Starlink; space stations such as the ISS; scientific satellites like the Hubble; Earth observation satellites from companies like Planet Labs, Umbra, and HawkEye 360; GPS; miniature CubeSats for education and research; and military/defense satellites.

Loading next visibility...
Identifier
62048, 2024-216S
Orbit
LEO
Last TLE update
10 hours ago
Origin
Manufacturer
SpaceX/Seattle
Mission
Operational Commercial Communications
Bus & Motor
STARLINK V2M, Unknown motor
Mass
730 kg wet, ~700 kg dry
Launch date (UTC)
2024-11-21 (8 months ago)
Launch vehicle
FALCON 9
Launch site
Air Force Eastern Test Range (AFETR)
Object type
Payload
Rocket body
Debris
Shape & HBR
Box + 2 Pan, 14.5 m
Radar Cross Section
36.964 m², Large (>1 m²)

Expand to show TLE details & history

TLE from 10 hours ago
0 STARLINK-32599
1 62048U 24216S   25199.55614042  .00013049  00000-0  48262-3 0  9990
2 62048  43.0004 145.8721 0001611 280.6985  79.3685 15.27597608 37950
Epoch: 2025-07-18T13:20Z
TLE epoch observation values (Epoch: 2025-07-18T13:20:50.532Z)
Latitude
-0.00002°
Longitude
9.05562°
Altitude
482.568 km
Speed
7.626 km/s
True Right ascension
09h 43m 29s
True Declination
0° 00' 00"
Sunlit
Object was in daylight at epoch
Visualization orbit readout
Latitude
-0.0314°
Longitude
-173.31213°
Altitude
482.999 km
Speed
7.626 km/s
Apparent Right ascension
22h 42m 43s
Apparent Declination
-20° 17' 59"
Sunlit
Object is in full shadow
Visualization observer readout
Local Sidereal Time
12:20:27
Azimuth
54.002° ENE
Elevation
-61.348°
Doppler factor
1
Orbital elements
Apogee altitude
486.047 km
Perigee altitude
483.836 km
Semi-major axis
6,863.078 km
Eccentricity
0.00016
Inclination
43.0004°
RAAN
145.8721°
Arg. of periapsis
280.6985°
True anomaly
79.38664°
Mean anomaly
79.3685°
Eccentric anomaly
79.37757°
Mean motion
3.81737 °/min
Orbital period
94.31 mins
BSTAR
0.00048262
Loading maneuver chart data...
Loading SW <> Apogee altitude chart data...
Loading historical data...
Loading historical data...
Loading historical data...
Loading historical data...
Loading historical data...
Loading historical data...
Loading historical data...
|